Home > Weather > Fort Bragg > Past weeks

Flag for USA Weather for the Past 2 Weeks in Fort Bragg, California, USA

Now
71 °F

Sunny.


Feels Like: 77 °F
Forecast: 52 / 62 °F
Wind: 7 mph from Southeast

Location: Ukiah Municipal

Current Time: May 2, 2016 at 12:47:17 PM

Latest Report: May 2, 2016 at 11:56 AM


Visibility: 10 mi

Pressure: 30.01 "Hg

Humidity: 44%

Dew Point: 48 °F

Location of Fort BraggLocation

Historic Weather in Fort Bragg — Graph

°F

Fort Bragg Temperature Yesterday

Maximum temperature yesterday: 83 °F (at 3:56 PM)
Minimum temperature yesterday: 45 °F (at 5:56 AM)
Average temperature yesterday: 65 °F

High & Low Weather Summary for the Past Weeks

 TemperatureHumidityPressure
High87 °F (Apr 17, 2:56 PM)97% (Apr 23, 5:56 AM)30.21 "Hg (Apr 23, 5:56 AM)
Low40 °F (Apr 26, 4:56 AM)14% (Apr 17, 2:56 PM)29.74 "Hg (Apr 22, 1:56 AM)
Average58 °F61%29.97 "Hg
* Reported Apr 17 11:56 AM — May 2 11:56 AM, Fort Bragg, Weather by CustomWeather, © 2016

Note: Actual official high and low records may vary slightly from our data, if they occured in-between our weather recording intervals... More about our weather records

Advertising

Fort Bragg Weather History for the Previous 24 Hours

Scroll right to see more
 ConditionsComfort  
Time TempWeatherWind HumidityBarometerVisibility
11:56 AM
Mon, May 2
71 °FSunny.7 mph44%30.01 "Hg10 mi
10:56 AM67 °FSunny.6 mph51%30.01 "Hg10 mi
9:56 AM61 °FSunny.3 mph62%30.02 "Hg10 mi
8:56 AM55 °FSunny.3 mph72%30.02 "Hg10 mi
7:56 AM52 °FSunny.No wind75%30.01 "Hg10 mi
6:56 AM47 °FClear.No wind86%29.99 "Hg10 mi
5:56 AM46 °FClear.No wind86%29.98 "Hg10 mi
4:56 AM47 °FClear.3 mph86%29.96 "Hg10 mi
3:56 AM48 °FClear.No wind83%29.96 "Hg10 mi
2:56 AM50 °FClear.No wind80%29.95 "Hg10 mi
1:56 AM52 °FClear.No wind75%29.94 "Hg10 mi
12:56 AM56 °FClear.No wind60%29.93 "Hg10 mi
11:56 PM
Sun, May 1
56 °FClear.No wind67%29.92 "Hg10 mi
10:56 PM59 °FClear.No wind54%29.91 "Hg10 mi
9:56 PM63 °FClear.No wind45%29.90 "Hg10 mi
8:56 PM67 °FSunny.5 mph36%29.87 "Hg10 mi
7:56 PM73 °FSunny.6 mph27%29.84 "Hg10 mi
6:56 PM77 °FSunny.6 mph24%29.82 "Hg10 mi
5:56 PM80 °FPartly sunny.12 mph22%29.80 "Hg10 mi
4:56 PM82 °FSunny.3 mph18%29.79 "Hg10 mi
3:56 PM83 °FSunny.10 mph20%29.79 "Hg10 mi
2:56 PM82 °FSunny.8 mph21%29.80 "Hg10 mi
1:56 PM81 °FSunny.7 mph21%29.80 "Hg10 mi
12:56 PM80 °FSunny.7 mph22%29.80 "Hg10 mi
Weather by CustomWeather, © 2016

See weather overviewHow to use our weather pages